TimeEDT,TemperatureF,Dew PointF,Humidity,Sea Level PressureIn,VisibilityMPH,Wind Direction,Wind SpeedMPH,Gust SpeedMPH,PrecipitationIn,Events,Conditions,WindDirDegrees,DateUTC
12:02 AM,57.2,53.6,88,29.43,6.0,WNW,12.7,-,0.01,Rain,Light Rain,300,2011-10-14 04:02:00
12:45 AM,57.2,53.6,88,29.43,10.0,WNW,12.7,-,0.03,Rain,Light Rain,300,2011-10-14 04:45:00
12:53 AM,55.9,53.1,90,29.43,9.0,NW,12.7,23.0,0.03,Rain,Light Rain,310,2011-10-14 04:53:00
1:04 AM,55.4,51.8,88,29.43,10.0,NW,12.7,20.7,0.00,Rain,Light Rain,310,2011-10-14 05:04:00
1:30 AM,55.4,53.6,94,29.42,9.0,West,10.4,-,0.02,Rain,Light Rain,280,2011-10-14 05:30:00
1:53 AM,55.4,53.6,94,29.43,10.0,WNW,10.4,-,N/A,Rain,Light Rain,290,2011-10-14 05:53:00
2:38 AM,55.4,51.8,88,29.43,10.0,WNW,11.5,19.6,0.01,,Overcast,290,2011-10-14 06:38:00
2:53 AM,55.0,51.1,86,29.43,10.0,West,9.2,-,0.01,,Overcast,280,2011-10-14 06:53:00
3:53 AM,55.0,51.1,86,29.42,10.0,West,10.4,-,N/A,,Overcast,280,2011-10-14 07:53:00
4:53 AM,55.0,50.0,83,29.42,10.0,West,10.4,18.4,N/A,,Overcast,270,2011-10-14 08:53:00
5:53 AM,54.0,48.9,83,29.43,10.0,West,12.7,-,N/A,,Overcast,280,2011-10-14 09:53:00
6:53 AM,54.0,48.9,83,29.44,10.0,West,9.2,-,N/A,,Overcast,280,2011-10-14 10:53:00
7:53 AM,54.0,48.9,83,29.44,10.0,West,12.7,18.4,N/A,Rain,Rain,270,2011-10-14 11:53:00
8:53 AM,53.6,46.4,77,29.46,10.0,West,12.7,21.9,N/A,,Overcast,280,2011-10-14 12:53:00
9:53 AM,53.1,45.0,74,29.48,10.0,West,13.8,20.7,N/A,,Overcast,270,2011-10-14 13:53:00
10:11 AM,53.6,44.6,72,29.48,10.0,West,12.7,18.4,N/A,,Overcast,270,2011-10-14 14:11:00
10:41 AM,53.6,44.6,72,29.48,10.0,West,15.0,-,N/A,,Overcast,280,2011-10-14 14:41:00
10:53 AM,53.1,43.0,69,29.49,10.0,West,16.1,24.2,N/A,,Overcast,280,2011-10-14 14:53:00
11:53 AM,54.0,42.1,64,29.51,10.0,West,11.5,23.0,N/A,,Overcast,280,2011-10-14 15:53:00
12:53 PM,53.1,42.1,66,29.52,10.0,West,17.3,21.9,N/A,,Overcast,280,2011-10-14 16:53:00
1:53 PM,55.0,43.0,64,29.52,10.0,WNW,19.6,26.5,N/A,,Overcast,290,2011-10-14 17:53:00
2:53 PM,53.6,41.0,62,29.53,10.0,West,15.0,26.5,N/A,,Overcast,280,2011-10-14 18:53:00
3:53 PM,55.9,41.0,57,29.55,10.0,West,12.7,28.8,N/A,,Overcast,260,2011-10-14 19:53:00
4:53 PM,55.9,39.9,55,29.55,10.0,WNW,17.3,25.3,N/A,,Mostly Cloudy,290,2011-10-14 20:53:00
5:53 PM,53.1,43.0,69,29.56,10.0,WNW,11.5,-,0.02,,Overcast,290,2011-10-14 21:53:00
6:53 PM,50.0,43.0,77,29.57,10.0,West,5.8,-,0.00,,Mostly Cloudy,260,2011-10-14 22:53:00
7:53 PM,50.0,43.0,77,29.59,6.0,WNW,9.2,-,0.03,Rain,Light Rain,300,2011-10-14 23:53:00
8:53 PM,46.0,43.0,89,29.60,10.0,WSW,4.6,-,0.03,,Clear,240,2011-10-15 00:53:00
9:53 PM,48.9,39.9,71,29.60,10.0,WNW,12.7,21.9,N/A,,Partly Cloudy,300,2011-10-15 01:53:00
10:53 PM,50.0,35.1,57,29.60,10.0,WNW,10.4,-,N/A,,Partly Cloudy,290,2011-10-15 02:53:00
11:53 PM,51.1,37.0,59,29.59,10.0,West,11.5,-,N/A,,Mostly Cloudy,280,2011-10-15 03:53:00